Location: Mount Tamalpais State Park
(37.9108°N, 122.6128°W)
Time: 17:16:21
(UTC-07:00)

Cosmos 1814 Rocket - Visible Passes

Search period start: 28 July 2016 00:00
Search period end: 07 August 2016 00:00
Orbit: 744 x 788 km, 74.1° (Epoch: 27 July)

Date Brightness Start Highest point End Pass type
(mag) Time Alt. Az. Time Alt. Az. Time Alt. Az.
28 Jul 6.3 01:56:39 14° E 01:56:39 14° E 01:58:48 10° ENE visible
28 Jul 4.1 03:36:54 58° W 03:37:21 61° WNW 03:42:40 10° N visible
29 Jul 4.1 03:00:12 73° ENE 03:00:12 73° ENE 03:05:12 10° NNE visible
29 Jul 6.1 04:40:26 11° W 04:42:29 13° NW 04:45:04 10° NNW visible
30 Jul 5.1 02:23:29 38° ENE 02:23:29 38° ENE 02:27:27 10° NNE visible
30 Jul 5.5 04:03:43 22° WNW 04:04:36 22° WNW 04:08:46 10° N visible
31 Jul 6.0 01:46:44 21° ENE 01:46:44 21° ENE 01:49:21 10° NE visible
31 Jul 4.9 03:26:58 37° WNW 03:26:58 37° WNW 03:31:49 10° N visible
01 Aug 6.6 01:09:58 11° ENE 01:09:58 11° ENE 01:10:26 10° ENE visible
01 Aug 4.6 02:50:12 54° NNW 02:50:12 54° NNW 02:54:34 10° NNE visible
02 Aug 5.0 02:13:24 44° NE 02:13:24 44° NE 02:17:03 10° NNE visible
02 Aug 6.1 03:53:38 14° WNW 03:54:18 14° WNW 03:57:11 10° NNW visible
03 Aug 5.8 01:36:35 27° NE 01:36:35 27° NE 01:39:17 10° NNE visible
03 Aug 5.6 03:16:49 24° NW 03:16:49 24° NW 03:20:44 10° N visible
04 Aug 6.3 00:59:45 16° ENE 00:59:45 16° ENE 01:01:06 10° NE visible
04 Aug 5.3 02:39:58 35° NW 02:39:58 35° NW 02:43:45 10° N visible
05 Aug 5.3 02:03:06 38° N 02:03:06 38° N 02:06:27 10° NNE visible
06 Aug 5.7 01:26:13 30° NNE 01:26:13 30° NNE 01:28:55 10° NNE visible
06 Aug 6.2 03:06:27 15° NW 03:06:27 15° NW 03:09:14 10° NNW visible
